Erzurum, Turkey

12:11 AM EET on February 10, 2016 (GMT +0200)
Erzurum

Weather History for LTCE - February, 2014

Change the Weather History Date:

Saturday, February 22, 2014

  Actual Average Record
Temperature  
Mean Temperature 33 °F -  
Max Temperature 45 °F 35 °F 53 °F (2002)
Min Temperature 21 °F 20 °F -22 °F (2012)
Degree Days  
Heating Degree Days 32    
Moisture  
Dew Point 26 °F    
Average Humidity 79    
Maximum Humidity 100    
Minimum Humidity 49    
Precipitation  
Precipitation 0.00 in 0.04 in - ()
Sea Level Pressure  
Sea Level Pressure 30.04 in    
Wind  
Wind Speed 2 mph ()    
Max Wind Speed 7 mph    
Max Gust Speed -    
Visibility 7.3 miles    
Events      
Averages and records for this station are not official NWS values.
T = Trace of Precipitation, MM = Missing Value Source: Averaged Metar Reports

Daily Weather History Graph

Daily Weather History Graph

Search for Another Location

Airport or City:

Trip Planner

Search our weather history database for the weather conditions in past years. The results will help you decide how hot, cold, wet, or windy it might be!

Date:

Astronomy

Feb. 22, 2014 Rise Set
Actual Time 5:59 AM EET 4:59 PM EET
Civil Twilight 5:31 AM EET 5:26 PM EET
Nautical Twilight 5:00 AM EET 5:57 PM EET
Astronomical Twilight 4:29 AM EET 6:29 PM EET
Moon No Moon Rise 9:53 AM EET (2/22)
Length of Visible Light 11h 54m
Length of Day
10h 59m
Waning Gibbous, 53% of the Moon is Illuminated
Feb 22
Waning Gibbous
Feb 22
Last Quarter
Mar 1
New
Mar 8
First Quarter
Mar 16
Full

Hourly Weather History & Observations

Time (EET) Temp. Windchill Dew Point Humidity Pressure Visibility Wind Dir Wind Speed Gust Speed Precip Events Conditions
12:20 AM 23.0 °F - 21.2 °F 93% 30.09 in - NNE 2.3 mph - N/A   Clear
12:50 AM 23.0 °F - 21.2 °F 93% 30.09 in - Calm Calm - N/A   Clear
1:20 AM 23.0 °F - 21.2 °F 93% 30.09 in - Calm Calm - N/A   Clear
1:50 AM 23.0 °F - 21.2 °F 93% 30.06 in - Calm Calm - N/A   Clear
2:00 AM 23 °F - 22 °F 94%  in 12 mi Calm Calm - -  
2:20 AM 21.2 °F 16.4 °F 19.4 °F 93% 30.06 in - North 3.5 mph - N/A   Clear
2:50 AM 21.2 °F - 19.4 °F 93% 30.06 in - Calm Calm - N/A   Clear
3:20 AM 21.2 °F - 21.2 °F 100% 30.06 in - Variable 1.2 mph - N/A   Clear
3:50 AM 24.8 °F 19.1 °F 21.2 °F 86% 30.06 in - SW 4.6 mph - N/A   Clear
4:20 AM 24.8 °F - 21.2 °F 86% 30.06 in - Variable 2.3 mph - N/A   Clear
4:50 AM 23.0 °F - 21.2 °F 93% 30.06 in - Variable 2.3 mph - N/A   Clear
5:00 AM 24 °F - 23 °F 94%  in 12 mi NE 2.3 mph - -  
5:20 AM 24.8 °F - 23.0 °F 93% 30.06 in - Calm Calm - N/A   Clear
5:50 AM 24.8 °F - 23.0 °F 93% 30.06 in - Variable 2.3 mph - N/A   Clear
6:20 AM 23.0 °F 18.4 °F 23.0 °F 100% 30.06 in - West 3.5 mph - N/A   Clear
6:50 AM 24.8 °F - 23.0 °F 93% 30.06 in - Variable 1.2 mph - N/A   Clear
7:20 AM 26.6 °F - 24.8 °F 93% 30.06 in - Variable 1.2 mph - N/A   Clear
7:50 AM 28.4 °F 24.6 °F 24.8 °F 86% 30.06 in 6.2 mi WSW 3.5 mph - N/A   Mostly Cloudy
8:00 AM 29 °F - 26 °F 81%  in 12 mi WSW 3.5 mph - -   Partly Cloudy
8:20 AM 30.2 °F - 24.8 °F 80% 30.06 in 6.2 mi Variable 1.2 mph - N/A   Mostly Cloudy
8:50 AM 32.0 °F - 26.6 °F 80% 30.06 in 6.2 mi Variable 2.3 mph - N/A   Mostly Cloudy
9:20 AM 35.6 °F - 26.6 °F 70% 30.06 in 6.2 mi Variable 2.3 mph - N/A   Scattered Clouds
9:50 AM 39.2 °F - 26.6 °F 61% 30.06 in 6.2 mi Variable 1.2 mph - N/A   Mostly Cloudy
10:20 AM 37.4 °F 34.9 °F 28.4 °F 70% 30.04 in 6.2 mi NNE 3.5 mph - N/A   Mostly Cloudy
10:50 AM 35.6 °F 31.7 °F 26.6 °F 70% 30.04 in 6.2 mi NNE 4.6 mph - N/A   Mostly Cloudy
11:00 AM 35 °F - 27 °F 63%  in 12 mi NNE 4.6 mph - -   Partly Cloudy
11:20 AM 37.4 °F 33.8 °F 30.2 °F 75% 30.04 in 6.2 mi NE 4.6 mph - N/A   Mostly Cloudy
11:50 AM 39.2 °F 35.9 °F 28.4 °F 65% 30.04 in 6.2 mi NNE 4.6 mph - N/A   Mostly Cloudy
12:20 PM 41.0 °F 39.0 °F 28.4 °F 61% 30.01 in 6.2 mi North 3.5 mph - N/A   Mostly Cloudy
12:50 PM 42.8 °F - 24.8 °F 49% 30.01 in 6.2 mi Variable 2.3 mph - N/A   Mostly Cloudy
1:20 PM 42.8 °F 41.1 °F 26.6 °F 53% 30.01 in 6.2 mi North 3.5 mph - N/A   Mostly Cloudy
1:50 PM 41.0 °F 38.0 °F 28.4 °F 61% 30.01 in 6.2 mi North 4.6 mph - N/A   Mostly Cloudy
2:00 PM 41 °F - 29 °F 50%  in 12 mi North 4.6 mph - -   Partly Cloudy
2:20 PM 44.6 °F 43.1 °F 32.0 °F 61% 30.01 in 6.2 mi Variable 3.5 mph - N/A   Mostly Cloudy
2:50 PM 44.6 °F 41.4 °F 32.0 °F 61% 30.01 in 6.2 mi West 5.8 mph - N/A   Mostly Cloudy
3:20 PM 44.6 °F 41.4 °F 32.0 °F 61% 30.01 in 6.2 mi SW 5.8 mph - N/A   Mostly Cloudy
3:50 PM 42.8 °F 38.6 °F 32.0 °F 66% 30.01 in 6.2 mi SW 6.9 mph - N/A   Mostly Cloudy
4:20 PM 41.0 °F 38.0 °F 30.2 °F 65% 30.01 in 6.2 mi SW 4.6 mph - N/A   Mostly Cloudy
4:50 PM 39.2 °F 37.0 °F 30.2 °F 70% 30.01 in 6.2 mi WSW 3.5 mph - N/A   Mostly Cloudy
5:00 PM 39 °F - 31 °F 65%  in 12 mi WSW 3.5 mph - -   Partly Cloudy
5:20 PM 39.2 °F 37.0 °F 30.2 °F 70% 30.01 in 6.2 mi West 3.5 mph - N/A   Mostly Cloudy
5:50 PM 35.6 °F - 30.2 °F 81% 30.01 in 6.2 mi Variable 1.2 mph - N/A   Mostly Cloudy
6:20 PM 37.4 °F - 28.4 °F 70% 30.04 in 6.2 mi Variable 2.3 mph - N/A   Mostly Cloudy
6:50 PM 37.4 °F - 28.4 °F 70% 30.04 in 6.2 mi Variable 2.3 mph - N/A   Mostly Cloudy
7:20 PM 35.6 °F 32.8 °F 28.4 °F 75% 30.04 in 6.2 mi South 3.5 mph - N/A   Mostly Cloudy
7:50 PM 35.6 °F 32.8 °F 28.4 °F 75% 30.04 in 6.2 mi South 3.5 mph - N/A   Mostly Cloudy
8:00 PM 35 °F - 28 °F 65%  in 12 mi South 3.5 mph - -   Partly Cloudy
8:20 PM 33.8 °F - 28.4 °F 81% 30.04 in 6.2 mi South 2.3 mph - N/A   Mostly Cloudy
8:50 PM 33.8 °F - 28.4 °F 81% 30.04 in 6.2 mi Variable 2.3 mph - N/A   Scattered Clouds
9:20 PM 33.8 °F 30.8 °F 28.4 °F 81% 30.04 in 6.2 mi WSW 3.5 mph - N/A   Scattered Clouds
9:50 PM 30.2 °F - 28.4 °F 93% 30.04 in 6.2 mi Variable 1.2 mph - N/A   Scattered Clouds
10:20 PM 30.2 °F 26.7 °F 28.4 °F 93% 30.04 in 6.2 mi South 3.5 mph - N/A   Scattered Clouds
10:50 PM 30.2 °F 25.4 °F 26.6 °F 86% 30.04 in 6.2 mi WSW 4.6 mph - N/A   Scattered Clouds
11:00 PM 30 °F - 28 °F 91%  in 12 mi WSW 4.6 mph - -   Partly Cloudy
11:20 PM 28.4 °F - 26.6 °F 93% 30.04 in 6.2 mi Calm Calm - N/A   Scattered Clouds
11:50 PM 28.4 °F - 26.6 °F 93% 30.04 in 6.2 mi Calm Calm - N/A   Scattered Clouds